Killeen/Ft Hood, TX

1:58 AM CDT on May 28, 2017 (GMT -0500)
Hood Army Air Field

Weather History for KHLR - August, 2014

Change the Weather History Date:

Friday, August 29, 2014

  Actual Average Record
Temperature  
Mean Temperature 85 °F -  
Max Temperature 99 °F 90 °F 106 °F (2011)
Min Temperature 72 °F 72 °F 69 °F (1996)
Cooling Degree Days 20    
Growing Degree Days 35 (Base 50)    
Moisture  
Dew Point 69 °F    
Average Humidity 63    
Maximum Humidity 87    
Minimum Humidity 36    
Precipitation  
Precipitation 0.00 in - - ()
Sea Level Pressure  
Sea Level Pressure 29.91 in    
Wind  
Wind Speed 7 mph (ESE)    
Max Wind Speed 15 mph    
Max Gust Speed 22 mph    
Visibility 10 miles    
Events Thunderstorm    
Averages and records for this station are not official NWS values.
T = Trace of Precipitation, MM = Missing Value Source: NWS Daily Summary

Daily Weather History Graph

Daily Weather History Graph

Search for Another Location

Airport or City:

Trip Planner

Search our weather history database for the weather conditions in past years. The results will help you decide how hot, cold, wet, or windy it might be!

Date:

Astronomy

Aug. 29, 2014 Rise Set
Actual Time 7:05 AM CDT 7:57 PM CDT
Civil Twilight 6:40 AM CDT 8:22 PM CDT
Nautical Twilight 6:11 AM CDT 8:51 PM CDT
Astronomical Twilight 5:41 AM CDT 9:21 PM CDT
Moon 10:38 AM CDT (8/29) 10:15 PM CDT (8/29)
Length of Visible Light 13h 42m
Length of Day
12h 52m
Waxing Crescent, 15% of the Moon is Illuminated
Aug 29
Waxing Crescent
Sep 2
First Quarter
Sep 8
Full
Sep 15
Last Quarter
Sep 24
New

Hourly Weather History & Observations

Time (CDT) Temp. Heat Index Dew Point Humidity Pressure Visibility Wind Dir Wind Speed Gust Speed Precip Events Conditions
12:56 AM 82.0 °F 85.9 °F 70.0 °F 67% 29.92 in 10.0 mi SE 5.8 mph - N/A   Clear
1:56 AM 80.1 °F 83.2 °F 70.0 °F 71% 29.92 in 10.0 mi SE 9.2 mph - N/A   Clear
2:56 AM 79.0 °F - 71.1 °F 77% 29.93 in 10.0 mi SE 6.9 mph - N/A   Partly Cloudy
3:56 AM 78.1 °F - 71.1 °F 79% 29.92 in 10.0 mi SSE 6.9 mph - N/A   Partly Cloudy
4:56 AM 77.0 °F - 71.1 °F 82% 29.91 in 10.0 mi SSE 4.6 mph - N/A   Clear
5:45 AM 78.8 °F - 71.6 °F 78% 29.94 in 10.0 mi NNW 6.9 mph - N/A   Mostly Cloudy
5:56 AM 78.1 °F - 72.0 °F 81% 29.95 in 10.0 mi NNW 6.9 mph - N/A   Overcast
6:56 AM 72.0 °F - 68.0 °F 87% 29.96 in 10.0 mi North 8.1 mph - N/A   Overcast
7:56 AM 73.0 °F - 69.1 °F 87% 29.91 in 10.0 mi SE 11.5 mph - N/A   Scattered Clouds
8:56 AM 75.9 °F - 69.1 °F 79% 29.92 in 10.0 mi Calm Calm - N/A   Clear
9:56 AM 82.0 °F 85.5 °F 69.1 °F 65% 29.92 in 10.0 mi Calm Calm - N/A   Clear
10:56 AM 87.1 °F 91.3 °F 69.1 °F 55% 29.94 in 10.0 mi NE 4.6 mph - N/A   Clear
11:56 AM 91.9 °F 97.4 °F 70.0 °F 48% 29.94 in 10.0 mi East 6.9 mph - N/A   Partly Cloudy
12:56 PM 93.0 °F 97.9 °F 69.1 °F 45% 29.91 in 10.0 mi SSE 6.9 mph - N/A   Partly Cloudy
1:56 PM 95.0 °F 99.5 °F 68.0 °F 41% 29.89 in 10.0 mi NE 5.8 mph - N/A   Scattered Clouds
2:56 PM 96.1 °F 99.9 °F 66.9 °F 38% 29.86 in 10.0 mi Calm Calm - N/A   Partly Cloudy
3:56 PM 98.1 °F 102.4 °F 66.9 °F 36% 29.89 in 10.0 mi ESE 6.9 mph - N/A   Scattered Clouds
4:56 PM 95.0 °F 97.9 °F 66.0 °F 38% 29.84 in 10.0 mi NE 9.2 mph - N/A   Mostly Cloudy
5:21 PM 91.4 °F 96.8 °F 69.8 °F 49% 29.85 in 10.0 mi ESE 11.5 mph - N/A Thunderstorm Thunderstorm
5:56 PM 88.0 °F 91.4 °F 68.0 °F 51% 29.85 in 10.0 mi East 15.0 mph 21.9 mph N/A   Mostly Cloudy
6:56 PM 88.0 °F 90.7 °F 66.9 °F 49% 29.84 in 10.0 mi East 15.0 mph 20.7 mph N/A   Clear
7:56 PM 84.9 °F 88.8 °F 69.1 °F 59% 29.88 in 10.0 mi ESE 6.9 mph - N/A   Clear
8:56 PM 82.9 °F 85.4 °F 66.9 °F 58% 29.91 in 10.0 mi ESE 8.1 mph - N/A   Clear
9:40 PM 80.6 °F 83.2 °F 68.0 °F 65% 29.94 in 10.0 mi East 5.8 mph - N/A Thunderstorm Thunderstorm
9:56 PM 81.0 °F 83.8 °F 68.0 °F 65% 29.95 in 10.0 mi East 4.6 mph - N/A Thunderstorm Thunderstorm
10:09 PM 80.6 °F 83.2 °F 68.0 °F 65% 29.93 in 10.0 mi East 6.9 mph - N/A   Clear
10:56 PM 80.1 °F 82.9 °F 69.1 °F 69% 29.94 in 10.0 mi ESE 3.5 mph - N/A   Clear
11:56 PM 79.0 °F - 70.0 °F 74% 29.94 in 10.0 mi ESE 3.5 mph - N/A   Clear